Location: Unspecified
(0.0000°N, 0.0000°E)
Time: 17:17:34
(UTC+00:00)

Vela 2A - Pass Details

Date: 29 November 2021
Orbit: 18140 x 188451 km, 32.5° (Epoch: 20 January)

Event Time Altitude Azimuth Distance (km) Brightness Sun altitude
Rises 10:23:27 0° 70° (ENE) 180,111 ? 60.1°
Reaches altitude 10° 11:08:17 10° 70° (ENE) 177,610 ? 66.3°
Maximum altitude 16:37:04 72° 358° (N) 160,394 ? 16.6°
Drops below altitude 10° 22:04:00 10° 284° (WNW) 148,837 ? -56.6°
Sets 22:48:18 0° 284° (WNW) 147,369 ? -63.8°
